Location: Red Bud (historical)
(37.7759°N, 88.4053°W)
Time: 23:08:27
(UTC+00:00)

Cosmos 2219 - Pass Details

Date: 29 October 2020
Orbit: 832 x 862 km, 71.1° (Epoch: 28 November)

Event Time Altitude Azimuth Distance (km) Brightness Sun altitude
Rises 23:10:34 0° 345° (NNW) 3,444 6.4 -3.3°
Reaches altitude 10° 23:13:13 10° 353° (N) 2,505 5.6 -3.8°
Maximum altitude 23:18:35 38° 61° (ENE) 1,281 3.7 -4.8°
Drops below altitude 10° 23:23:54 10° 129° (SE) 2,490 5.3 -5.8°
Sets 23:26:30 0° 137° (SE) 3,421 6.1 -6.3°
